RYR5DN LIEE-LIME

Flight info

Callsign RYR5DN
Flight time 1h 6m
Altitude 34000
Route KOVAS DCT DEXUL DCT VAVAX DCT OLBEK DCT UPDIN DCT SPEZI/N0337F180 M729 IDONA T836 DIXER
Aircraft B38M/M-SDE1FGHILORVWXY/HB1

Departure

Time 2026-04-28 19:10
Airport Cagliari Elmas Airport (LIEE)

Arrival

Time 2026-04-28 20:16
Airport Il Caravaggio International Airport (LIME)
Time Latitude Longitude Altitude Speed Heading
2026-04-28 18:31 39.25151 9.06077 23 ft 0 kts 142°
2026-04-28 19:00 39.25156 9.06072 23 ft 2 kts 141°
2026-04-28 19:00 39.25167 9.06060 23 ft 2 kts 141°
2026-04-28 19:01 39.25179 9.06048 23 ft 2 kts 141°
2026-04-28 19:01 39.25191 9.06036 23 ft 1 kts 141°
2026-04-28 19:01 39.25200 9.06029 23 ft 1 kts 180°
2026-04-28 19:01 39.25211 9.06035 23 ft 1 kts 239°
2026-04-28 19:02 39.25218 9.06052 23 ft 1 kts 231°
2026-04-28 19:02 39.25220 9.06055 23 ft 0 kts 229°
2026-04-28 19:05 39.25217 9.06050 23 ft 2 kts 229°
2026-04-28 19:05 39.25199 9.06022 23 ft 5 kts 231°
2026-04-28 19:05 39.25169 9.05970 23 ft 9 kts 233°
2026-04-28 19:05 39.25148 9.05899 23 ft 9 kts 288°
2026-04-28 19:06 39.25200 9.05828 23 ft 12 kts 318°
2026-04-28 19:06 39.25250 9.05770 23 ft 15 kts 317°
2026-04-28 19:06 39.25375 9.05614 23 ft 21 kts 304°
2026-04-28 19:06 39.25417 9.05416 23 ft 24 kts 294°
2026-04-28 19:07 39.25541 9.05248 23 ft 27 kts 318°
2026-04-28 19:07 39.25681 9.05085 23 ft 26 kts 318°
2026-04-28 19:07 39.25814 9.04931 23 ft 25 kts 318°
2026-04-28 19:07 39.25941 9.04784 23 ft 24 kts 318°
2026-04-28 19:08 39.26064 9.04643 23 ft 22 kts 318°
2026-04-28 19:08 39.26130 9.04505 23 ft 16 kts 273°
2026-04-28 19:08 39.26100 9.04385 23 ft 13 kts 214°
2026-04-28 19:08 39.26044 9.04393 23 ft 5 kts 139°
2026-04-28 19:09 39.26002 9.04442 23 ft 15 kts 139°
2026-04-28 19:09 39.25757 9.04724 23 ft 78 kts 138°
2026-04-28 19:09 39.25213 9.05354 23 ft 128 kts 138°
2026-04-28 19:09 39.24468 9.06237 125 ft 156 kts 139°
2026-04-28 19:10 39.23668 9.07107 720 ft 152 kts 141°
2026-04-28 19:10 39.22825 9.08058 1140 ft 163 kts 137°
2026-04-28 19:10 39.22008 9.09037 1755 ft 163 kts 135°
2026-04-28 19:10 39.21143 9.10056 2212 ft 176 kts 136°
2026-04-28 19:11 39.20199 9.11141 2662 ft 190 kts 139°
2026-04-28 19:11 39.18983 9.12018 3098 ft 211 kts 165°
2026-04-28 19:11 39.17477 9.11950 3639 ft 229 kts 195°
2026-04-28 19:11 39.16059 9.10924 4367 ft 238 kts 219°
2026-04-28 19:12 39.14962 9.09403 5261 ft 238 kts 234°
2026-04-28 19:12 39.14343 9.07432 6058 ft 242 kts 261°
2026-04-28 19:12 39.14563 9.05259 6622 ft 257 kts 295°
2026-04-28 19:12 39.15727 9.03443 7120 ft 274 kts 319°
2026-04-28 19:13 39.17341 9.02062 7685 ft 286 kts 335°
2026-04-28 19:13 39.19300 9.01530 8468 ft 290 kts 359°
2026-04-28 19:13 39.21324 9.01722 9203 ft 294 kts
2026-04-28 19:13 39.23360 9.02073 9915 ft 298 kts
2026-04-28 19:14 39.25441 9.02412 10519 ft 306 kts
2026-04-28 19:14 39.27576 9.02709 11088 ft 315 kts
2026-04-28 19:14 39.29765 9.02980 11849 ft 317 kts
2026-04-28 19:14 39.31955 9.03236 12586 ft 320 kts
2026-04-28 19:15 39.34185 9.03495 13320 ft 323 kts
2026-04-28 19:15 39.36403 9.03752 14043 ft 326 kts
2026-04-28 19:15 39.38674 9.04016 14750 ft 329 kts
2026-04-28 19:15 39.40199 9.04193 15232 ft 332 kts
2026-04-28 19:16 39.43290 9.04554 16158 ft 337 kts
2026-04-28 19:16 39.45614 9.04827 16829 ft 340 kts
2026-04-28 19:16 39.47988 9.05105 17483 ft 344 kts
2026-04-28 19:16 39.50370 9.05384 18142 ft 347 kts
2026-04-28 19:17 39.52785 9.05668 18772 ft 351 kts
2026-04-28 19:17 39.55250 9.05957 19414 ft 354 kts
2026-04-28 19:17 39.57710 9.06246 20031 ft 358 kts
2026-04-28 19:17 39.60191 9.06537 20664 ft 360 kts
2026-04-28 19:18 39.62683 9.06837 21210 ft 365 kts
2026-04-28 19:18 39.65223 9.07297 21769 ft 369 kts
2026-04-28 19:18 39.67722 9.07990 22367 ft 371 kts 12°
2026-04-28 19:18 39.70253 9.08822 22915 ft 375 kts 14°
2026-04-28 19:19 39.72758 9.09689 23427 ft 378 kts 14°
2026-04-28 19:19 39.75327 9.10586 23970 ft 381 kts 14°
2026-04-28 19:19 39.77885 9.11472 24473 ft 384 kts 14°
2026-04-28 19:19 39.80450 9.12352 24973 ft 386 kts 14°
2026-04-28 19:20 39.83074 9.13245 25463 ft 389 kts 13°
2026-04-28 19:20 39.85680 9.14145 25905 ft 392 kts 15°
2026-04-28 19:20 39.88270 9.15219 26353 ft 395 kts 18°
2026-04-28 19:20 39.90877 9.16474 26852 ft 396 kts 20°
2026-04-28 19:21 39.93459 9.17788 27246 ft 400 kts 21°
2026-04-28 19:21 39.96020 9.19111 27700 ft 402 kts 21°
2026-04-28 19:21 39.98650 9.20466 28096 ft 405 kts 20°
2026-04-28 19:21 40.01269 9.21806 28494 ft 407 kts 20°
2026-04-28 19:22 40.03908 9.23147 28914 ft 409 kts 20°
2026-04-28 19:22 40.05677 9.24042 29173 ft 411 kts 20°
2026-04-28 19:22 40.09234 9.25835 29695 ft 413 kts 20°
2026-04-28 19:22 40.11915 9.27182 30033 ft 416 kts 20°
2026-04-28 19:23 40.14626 9.28545 30417 ft 418 kts 20°
2026-04-28 19:23 40.17361 9.29918 30784 ft 420 kts 20°
2026-04-28 19:23 40.20090 9.31290 31103 ft 423 kts 20°
2026-04-28 19:23 40.22845 9.32675 31473 ft 424 kts 20°
2026-04-28 19:24 40.25608 9.34066 31776 ft 427 kts 20°
2026-04-28 19:24 40.28388 9.35465 32134 ft 428 kts 20°
2026-04-28 19:24 40.31195 9.36879 32402 ft 432 kts 20°
2026-04-28 19:24 40.34011 9.38299 32779 ft 432 kts 20°
2026-04-28 19:25 40.36843 9.39728 33037 ft 436 kts 20°
2026-04-28 19:25 40.39679 9.41161 33442 ft 435 kts 20°
2026-04-28 19:25 40.42473 9.42574 33879 ft 433 kts 19°
2026-04-28 19:25 40.45293 9.44002 34000 ft 437 kts 20°
2026-04-28 19:26 40.51062 9.46924 34011 ft 446 kts 19°
2026-04-28 19:26 40.56844 9.49860 34004 ft 449 kts 19°
2026-04-28 19:27 40.62707 9.52843 33998 ft 450 kts 19°
2026-04-28 19:27 40.68554 9.55825 33991 ft 449 kts 19°
2026-04-28 19:28 40.74356 9.58789 33989 ft 450 kts 19°
2026-04-28 19:28 40.80197 9.61779 33988 ft 449 kts 19°
2026-04-28 19:29 40.85063 9.64274 33988 ft 449 kts 19°
2026-04-28 19:29 40.91819 9.67745 33985 ft 450 kts 20°
2026-04-28 19:30 40.97650 9.70746 33984 ft 449 kts 20°
2026-04-28 19:30 41.03509 9.73769 33986 ft 449 kts 20°
2026-04-28 19:31 41.09403 9.76813 33986 ft 456 kts 20°
2026-04-28 19:31 41.15305 9.79870 33986 ft 454 kts 20°
2026-04-28 19:32 41.21215 9.82930 33991 ft 454 kts 19°
2026-04-28 19:32 41.27290 9.85301 33991 ft 451 kts
2026-04-28 19:33 41.33498 9.85930 33991 ft 449 kts 359°
2026-04-28 19:33 41.39738 9.85970 33994 ft 448 kts 358°
2026-04-28 19:34 41.45999 9.85962 33996 ft 448 kts 358°
2026-04-28 19:34 41.52249 9.86025 33996 ft 447 kts 359°
2026-04-28 19:35 41.58478 9.86138 34000 ft 447 kts 359°
2026-04-28 19:35 41.64693 9.86270 34000 ft 447 kts 359°
2026-04-28 19:36 41.70911 9.86409 34001 ft 446 kts 359°
2026-04-28 19:36 41.77142 9.86550 34000 ft 447 kts 359°
2026-04-28 19:37 41.82309 9.86666 34001 ft 446 kts 359°
2026-04-28 19:37 41.89543 9.86833 34005 ft 446 kts 359°
2026-04-28 19:38 41.95771 9.86975 34007 ft 445 kts 359°
2026-04-28 19:38 42.01980 9.87115 34011 ft 446 kts 359°
2026-04-28 19:39 42.08164 9.87257 34008 ft 445 kts 359°
2026-04-28 19:39 42.14362 9.87399 34006 ft 445 kts 359°
2026-04-28 19:40 42.20522 9.87543 34009 ft 445 kts 359°
2026-04-28 19:40 42.26745 9.87688 34006 ft 444 kts 359°
2026-04-28 19:41 42.32883 9.87829 34007 ft 444 kts 359°
2026-04-28 19:41 42.39097 9.87972 34009 ft 444 kts 359°
2026-04-28 19:42 42.45260 9.88116 34012 ft 443 kts 359°
2026-04-28 19:42 42.50417 9.88238 34005 ft 443 kts 359°
2026-04-28 19:43 42.57589 9.88405 34009 ft 444 kts 359°
2026-04-28 19:43 42.63781 9.88549 34008 ft 443 kts 359°
2026-04-28 19:44 42.69939 9.88693 34008 ft 443 kts 359°
2026-04-28 19:44 42.76072 9.88837 34010 ft 442 kts 359°
2026-04-28 19:45 42.82247 9.88983 34007 ft 442 kts 358°
2026-04-28 19:45 42.88381 9.89127 34009 ft 442 kts 358°
2026-04-28 19:46 42.94534 9.89272 34006 ft 441 kts 359°
2026-04-28 19:46 43.00661 9.89416 34008 ft 442 kts 358°
2026-04-28 19:47 43.06771 9.89561 34011 ft 441 kts 358°
2026-04-28 19:47 43.12924 9.89708 34008 ft 441 kts 358°
2026-04-28 19:48 43.19083 9.89855 34008 ft 441 kts 358°
2026-04-28 19:48 43.25183 9.89687 34006 ft 438 kts 350°
2026-04-28 19:49 43.31106 9.87980 34010 ft 435 kts 343°
2026-04-28 19:49 43.36991 9.85834 34008 ft 436 kts 343°
2026-04-28 19:50 43.45798 9.82827 34007 ft 436 kts 344°
2026-04-28 19:51 43.51689 9.80960 34004 ft 436 kts 345°
2026-04-28 19:51 43.57664 9.79450 34008 ft 439 kts 352°
2026-04-28 19:52 43.63823 9.79227 34007 ft 441 kts 358°
2026-04-28 19:52 43.69928 9.79337 34008 ft 441 kts 358°
2026-04-28 19:52 43.73003 9.79384 33820 ft 439 kts 358°
2026-04-28 19:53 43.76020 9.79412 33564 ft 436 kts 357°
2026-04-28 19:53 43.79066 9.79423 33320 ft 434 kts 357°
2026-04-28 19:53 43.82067 9.79417 33075 ft 436 kts 357°
2026-04-28 19:53 43.85131 9.79398 32676 ft 440 kts 356°
2026-04-28 19:54 43.88177 9.79372 32222 ft 440 kts 356°
2026-04-28 19:54 43.91240 9.79368 31766 ft 439 kts 358°
2026-04-28 19:54 43.94307 9.79529 31309 ft 441 kts
2026-04-28 19:54 43.97340 9.79823 30997 ft 433 kts
2026-04-28 19:55 44.00304 9.80166 30730 ft 432 kts
2026-04-28 19:55 44.03352 9.80531 30463 ft 438 kts
2026-04-28 19:55 44.06368 9.80888 30197 ft 438 kts
2026-04-28 19:55 44.09372 9.81239 29924 ft 427 kts
2026-04-28 19:56 44.12326 9.81578 29464 ft 421 kts
2026-04-28 19:56 44.15215 9.81901 28805 ft 420 kts
2026-04-28 19:56 44.18138 9.82219 28134 ft 419 kts
2026-04-28 19:56 44.21071 9.82534 27463 ft 418 kts
2026-04-28 19:57 44.23944 9.82839 26807 ft 418 kts
2026-04-28 19:57 44.26830 9.83144 26187 ft 415 kts
2026-04-28 19:57 44.29708 9.83448 25570 ft 412 kts
2026-04-28 19:57 44.32552 9.83750 24922 ft 410 kts
2026-04-28 19:58 44.35356 9.84046 24275 ft 408 kts
2026-04-28 19:58 44.38207 9.84347 23611 ft 406 kts
2026-04-28 19:58 44.40986 9.84640 22973 ft 404 kts
2026-04-28 19:58 44.43807 9.84937 22330 ft 401 kts
2026-04-28 19:59 44.46557 9.85229 21754 ft 398 kts
2026-04-28 19:59 44.49292 9.85519 21194 ft 394 kts
2026-04-28 19:59 44.52016 9.85809 20631 ft 390 kts
2026-04-28 19:59 44.54687 9.86093 20077 ft 387 kts
2026-04-28 20:00 44.57376 9.86377 19522 ft 389 kts
2026-04-28 20:00 44.60049 9.86660 18909 ft 388 kts
2026-04-28 20:00 44.62752 9.86947 18267 ft 385 kts
2026-04-28 20:00 44.65413 9.87230 17636 ft 382 kts
2026-04-28 20:01 44.68031 9.87509 17013 ft 380 kts
2026-04-28 20:01 44.70671 9.87790 16400 ft 377 kts
2026-04-28 20:01 44.73262 9.88066 15778 ft 374 kts
2026-04-28 20:01 44.75832 9.88339 15094 ft 372 kts
2026-04-28 20:02 44.78406 9.88613 14586 ft 368 kts
2026-04-28 20:02 44.80949 9.88884 13997 ft 364 kts
2026-04-28 20:02 44.83458 9.89152 13388 ft 361 kts
2026-04-28 20:02 44.85955 9.89419 12772 ft 360 kts
2026-04-28 20:03 44.88428 9.89683 12159 ft 358 kts
2026-04-28 20:03 44.90878 9.89945 11681 ft 352 kts
2026-04-28 20:03 44.93310 9.90207 11258 ft 346 kts
2026-04-28 20:03 44.95725 9.90467 10838 ft 347 kts
2026-04-28 20:04 44.98119 9.90724 10488 ft 345 kts
2026-04-28 20:04 45.00493 9.90980 10174 ft 340 kts
2026-04-28 20:04 45.02838 9.91233 9900 ft 332 kts
2026-04-28 20:04 45.05115 9.91479 9563 ft 326 kts
2026-04-28 20:05 45.07326 9.91718 9188 ft 319 kts
2026-04-28 20:05 45.09505 9.91954 8801 ft 309 kts
2026-04-28 20:05 45.11634 9.92184 8538 ft 301 kts
2026-04-28 20:05 45.13710 9.92409 8295 ft 294 kts
2026-04-28 20:06 45.15703 9.92625 8041 ft 287 kts
2026-04-28 20:06 45.17673 9.92837 7807 ft 280 kts
2026-04-28 20:06 45.19597 9.93048 7564 ft 275 kts
2026-04-28 20:06 45.21496 9.93256 7297 ft 273 kts
2026-04-28 20:07 45.23395 9.93462 7027 ft 272 kts
2026-04-28 20:07 45.24650 9.93596 6861 ft 270 kts
2026-04-28 20:07 45.27155 9.93866 6542 ft 270 kts
2026-04-28 20:07 45.29014 9.94070 6301 ft 268 kts
2026-04-28 20:08 45.30865 9.94275 6038 ft 265 kts
2026-04-28 20:08 45.32684 9.94473 5994 ft 262 kts
2026-04-28 20:08 45.34523 9.94671 5990 ft 266 kts
2026-04-28 20:08 45.36354 9.94867 5980 ft 264 kts
2026-04-28 20:09 45.38191 9.95066 5993 ft 264 kts
2026-04-28 20:09 45.40037 9.95267 5995 ft 265 kts
2026-04-28 20:09 45.41872 9.95467 5993 ft 265 kts
2026-04-28 20:09 45.43696 9.95666 5993 ft 265 kts
2026-04-28 20:10 45.45537 9.95867 5997 ft 259 kts
2026-04-28 20:10 45.47296 9.96059 6002 ft 249 kts
2026-04-28 20:10 45.49002 9.96245 5977 ft 242 kts
2026-04-28 20:10 45.50681 9.96336 5790 ft 241 kts
2026-04-28 20:11 45.52359 9.96293 5365 ft 246 kts 359°
2026-04-28 20:11 45.54086 9.96189 4865 ft 248 kts 359°
2026-04-28 20:11 45.55800 9.96086 4427 ft 244 kts 359°
2026-04-28 20:11 45.57467 9.95996 4042 ft 238 kts 359°
2026-04-28 20:12 45.59101 9.95912 3755 ft 228 kts 359°
2026-04-28 20:12 45.60641 9.95692 3500 ft 220 kts 348°
2026-04-28 20:12 45.61953 9.94747 3423 ft 209 kts 317°
2026-04-28 20:12 45.62540 9.93662 3436 ft 208 kts 298°
2026-04-28 20:13 45.62967 9.91003 3375 ft 200 kts 280°
2026-04-28 20:13 45.63262 9.89065 3140 ft 199 kts 288°
2026-04-28 20:13 45.63649 9.87217 2876 ft 194 kts 288°
2026-04-28 20:13 45.64009 9.85370 2599 ft 189 kts 287°
2026-04-28 20:14 45.64349 9.83588 2351 ft 183 kts 287°
2026-04-28 20:14 45.64666 9.81918 2141 ft 163 kts 286°
2026-04-28 20:14 45.64955 9.80387 1878 ft 154 kts 286°
2026-04-28 20:14 45.65229 9.78936 1708 ft 153 kts 286°
2026-04-28 20:15 45.65517 9.77455 1521 ft 154 kts 287°
2026-04-28 20:15 45.65807 9.75998 1321 ft 153 kts 286°
2026-04-28 20:15 45.66072 9.74526 1110 ft 152 kts 286°
2026-04-28 20:15 45.66345 9.73056 909 ft 151 kts 286°
2026-04-28 20:16 45.66612 9.71620 780 ft 142 kts 285°
2026-04-28 20:16 45.66799 9.70614 792 ft 77 kts 284°
2026-04-28 20:16 45.66884 9.70155 793 ft 19 kts 279°
2026-04-28 20:16 45.66883 9.69990 793 ft 9 kts 243°
2026-04-28 20:17 45.66856 9.69926 792 ft 7 kts 239°
2026-04-28 20:17 45.66840 9.69886 792 ft 3 kts 239°
2026-04-28 20:17 45.66826 9.69855 792 ft 3 kts 234°
2026-04-28 20:17 45.66793 9.69832 791 ft 7 kts 159°
2026-04-28 20:18 45.66757 9.69932 791 ft 14 kts 104°
2026-04-28 20:18 45.66738 9.70036 791 ft 18 kts 104°
2026-04-28 20:18 45.66708 9.70144 791 ft 4 kts 170°
2026-04-28 20:18 45.66665 9.70132 790 ft 8 kts 195°
2026-04-28 20:19 45.66635 9.70121 790 ft 0 kts 194°
2026-04-28 20:19 45.66634 9.70121 790 ft 0 kts 194°